UWE-4

Last updated on Sun Sep 20 2026 00:03:12 GMT+0000 (Coordinated Universal Time)

1 43880U 18111E 26260.79047191 .00032620 00000+0 54348-3 0 9998 2 43880 97.5815 193.8360 0006557 15.6860 344.4594 15.51924947425112
UTC large
Height (km)
Speed (km/s)
/
Latitude / Longitude
Inclination (degrees)
Orbital Period (minutes)
Azimuth
Elevation
Range (km)
Doppler Factor

Next 0 passes for location: London (51.5072 / 0.1276)

No passes found over London.
UWE-4